www.pogodaiklimat.ru

Погода и климат >> Архив погоды >> Россия >> Магаданская область >> Магадан


АРХИВ ПОГОДЫ в Магадане

Время (UTC), дата Ветер
(напр.,м/с)
 
Видим.   Явления Облачность Т
(С)
Тd
(С)
f
(%)
Тe
(С)
Тes
(С)
Комфортность P
(гПа)
Po
(гПа)
Тmin
(С)
Tmax
(С)
R
(мм)
R24
(мм)
S
(см)
09 9.09 В 6-10
{11}
50 км 10/0
[Ac trans Cs]
+10.8 +2.4 56 +8 +8 по сезону 998.0 984.2 +13.3
12 9.09 СВ 3
{10}
50 км 10/0
[Ac trans Cs]
+8.3 +3.3 71 +6 +6 по сезону 996.7 982.8
15 9.09 СВ 2 50 км 10/3 1000 м
[Sc Ac trans Cs]
+7.4 +2.7 72 +6 +6 по сезону 995.6 981.6
18 9.09 З 2 50 км 8/3 1000 м
[Sc Ac trans Ci fib]
+6.6 +2.4 75 +4 +4 по сезону 994.9 980.9
21 9.09 ЮЗ 2 50 км 3/1 1000 м
[Sc Ci fib]
+10.4 +0.4 50 +9 +10 по сезону 995.0 981.2 +6.2
00 10.09 С 6-10
{12}
50 км 1/1 1000 м
[Sc]
+14.7 +0.2 37 +13 +15 тепло 995.1 981.5
03 10.09 С 6 50 км 4/4 600 м
[Cu Sc]
+16.8 -1.7 28 +16 +17 тепло 994.9 981.4
06 10.09 С 5
{13}
50 км 5/5 600 м
[Cu Sc]
+15.9 -2.9 27 +15 +16 тепло 995.8 982.2
09 10.09 С 4
{10}
50 км 3/3 1000 м
[Sc]
+13.0 -3.7 31 +12 +12 тепло 998.1 984.4 +16.9
12 10.09 СВ 1 50 км ясно +10.9 -2.5 39 +11 +11 тепло 999.8 986.0
15 10.09 З 1 50 км ясно +10.6 -3.1 38 +11 +11 тепло 1001.0 987.1
18 10.09 С 8-13
{13}
50 км 3/0
[Ac trans Ci fib]
+10.1 -4.5 35 +7 +7 по сезону 1001.4 987.5
21 10.09 В 3
{13}
50 км 9/3 1000 м
[Sc Ac trans Ci fib]
+10.4 -3.5 37 +9 +9 по сезону 1003.9 989.9 +8.7
00 11.09 СВ 7-14
{16}
50 км 5/1 1000 м
[Sc Ci fib]
+13.9 -2.9 31 +12 +13 тепло 1005.2 991.4
03 11.09 СВ 6-11
{17}
50 км 4/3 600 м
[Cu hum Ci fib]
+15.5 -2.3 29 +14 +16 тепло 1006.1 992.4
06 11.09 С 8-12
{17}
50 км 5/3 600 м
[Cu Sc Ci fib]
+14.8 -2.8 30 +13 +13 тепло 1007.9 994.1
09 11.09 СВ 1
{13}
50 км 3/1 1000 м
[Sc Ci fib]
+12.5 -3.5 33 +13 +13 тепло 1010.2 996.3 +15.9
12 11.09 СЗ 1 50 км ясно +9.8 -2.8 41 +10 +10 тепло 1011.7 997.6
15 11.09 СВ 4 50 км ясно +7.0 -2.2 52 +4 +4 по сезону 1012.3 998.1
18 11.09 СВ 2 50 км 3/1 1000 м
[Sc Ci fib]
+7.5 -2.3 50 +6 +6 по сезону 1012.8 998.6
21 11.09 В 3 50 км 3/1 1000 м
[Sc Ci fib]
+7.9 -1.6 51 +6 +6 по сезону 1013.4 999.2 +5.3
00 12.09 В 3 50 км 4/0
[Ac trans Ci fib]
+11.3 -0.3 45 +10 +14 тепло 1012.9 998.9
03 12.09 З 3 50 км 9/0
[Ci fib]
+12.4 +2.7 52 +11 +15 тепло 1012.1 998.2
06 12.09 З 4 50 км 10/0
[Cs]
+10.6 +6.0 73 +8 +9 по сезону 1011.6 997.6
09 12.09 З 2 50 км 10/1 1000 м
[Sc Ac trans Cs]
+9.6 +5.6 76 +8 +8 по сезону 1011.5 997.4 +13.6
12 12.09 З 2 50 км 10/3 1000 м
[Sc Ac trans Cs]
+9.3 +7.9 91 +8 +8 по сезону 1011.9 997.8
15 12.09 С 1 50 км 9/6 1000 м
[Sc Ac trans Ci fib]
+8.1 +5.4 83 +7 +7 по сезону 1011.9 997.8
18 12.09 СВ 3 50 км 8/4 1000 м
[Sc Ci fib]
+6.8 +3.8 81 +4 +4 по сезону 1011.9 997.7
21 12.09 СВ 2 50 км 9/5 200 м
[St Ac trans Ci fib]
+6.5 +4.9 90 +4 +4 по сезону 1012.8 998.5 +5.6
00 13.09 В 2 50 км 3/1 300 м
[St Ci fib]
+12.4 +8.0 75 +12 +16 тепло 1012.6 998.7
03 13.09 З 3 50 км 5/3 300 м
[St Ci fib]
+13.3 +9.1 76 +12 +15 тепло 1012.1 998.2
06 13.09 З 4 50 км 8/5 300 м
[St Ci fib]
+11.7 +9.0 83 +10 +10 по сезону 1011.7 997.7
09 13.09 З 3 50 км 9/8 300 м
[St Ac trans Ci fib]
+10.4 +9.1 92 +8 +8 по сезону 1012.2 998.2 +13.5
12 13.09 штиль 0 50 км 9/6 300 м
[St Ac trans Ci fib]
+10.4 +8.8 90 +10 +10 тепло 1011.9 997.9
15 13.09 В 1 20 км 10/10 200 м
[St]
+9.6 +8.3 92 +9 +9 тепло 1012.1 998.0
18 13.09 СВ 3 20 км 10/10 200 м
[St]
+9.3 +8.3 93 +7 +7 тепло 1011.4 997.3
21 13.09 В 3 500 м слаб. морось {туман} туман ?/? +9.0 +8.8 99 +6 +6 по сезону 1011.0 996.9 +9.0 0.0
00 14.09 В 3 10 км {морось, туман} 10/10 300 м
[St]
+9.4 +8.2 92 +7 +7 по сезону 1010.9 996.9 +8.8
03 14.09 В 4 20 км 10/10 300 м
[Cb calv]
+10.1 +7.9 86 +7 +7 по сезону 1010.0 996.0
06 14.09 В 3 50 км 10/9 300 м
[Cb calv Ac As]
+10.5 +7.7 83 +8 +8 по сезону 1008.6 994.7
09 14.09 СВ 3 50 км 10/8 300 м
[Cb calv Ac As]
+9.2 +8.0 92 +7 +7 по сезону 1008.2 994.2 +10.7 0.0
12 14.09 СВ 5 50 км 9/8 300 м
[Cb calv Ac trans]
+8.1 +6.1 87 +4 +4 по сезону 1007.4 993.3
15 14.09 СВ 5 50 км 9/5 300 м
[Cb calv Ac trans Ci fib]
+7.5 +5.3 86 +4 +4 по сезону 1006.0 991.9
18 14.09 В 5
{10}
50 км 9/6 300 м
[Cb calv Ac trans Ci fib]
+7.3 +4.7 84 +3 +3 по сезону 1004.7 990.6
21 14.09 СВ 6-10
{14}
50 км 9/8 300 м
[Cb calv Ac trans]
+7.8 +3.5 74 +4 +4 по сезону 1004.0 989.9 +7.1
00 15.09 В 6-11
{14}
10 км слаб. ливневой дождь 10/10 600 м
[Cb cap]
+8.4 +2.0 64 +5 +5 по сезону 1002.8 988.8
03 15.09 СВ 7-12
{15}
10 км слаб. ливневой дождь 10/10 600 м
[Cb cap]
+8.8 +4.5 74 +5 +5 по сезону 1001.7 987.7
06 15.09 СВ 6-11
{15}
10 км слаб. ливневой дождь 10/10 300 м
[Cb cap]
+9.0 +4.9 75 +5 +5 по сезону 1001.1 987.2
09 15.09 В 5-10
{16}
20 км {ливн. осадки} 10/10 300 м
[Cb calv]
+8.4 +5.8 84 +5 +5 по сезону 1002.0 988.0 +9.4 2
12 15.09 В 3
{11}
4000 м слаб. ливневой дождь 10/10 300 м
[Cb cap]
+7.9 +6.9 93 +5 +5 по сезону 1003.0 989.0
15 15.09 СВ 2 10 км слаб. ливневой дождь 9/8 300 м
[Cb cap Ac trans]
+8.1 +7.2 94 +6 +6 по сезону 1005.1 991.1
18 15.09 ЮВ 2 10 км слаб. ливневой дождь 10/10 300 м
[Cb cap]
+8.0 +6.5 90 +6 +6 по сезону 1006.3 992.3
21 15.09 СВ 4 10 км слаб. ливневой дождь 9/9 300 м
[Cb cap Ac trans]
+7.6 +6.4 92 +4 +4 по сезону 1007.2 993.1 +7.4 5
00 16.09 СВ 5-10
{10}
50 км {ливн. осадки} 9/8 300 м
[Cb calv Ac trans Ci fib]
+10.0 +6.5 79 +7 +7 по сезону 1008.5 994.6 +7.3
03 16.09 СВ 6
{10}
50 км 9/6 600 м
[Cb calv Ac trans Ci fib]
+10.9 +5.7 70 +8 +8 по сезону 1010.5 996.5

 

Местоположение метеостанции Магадан (Магаданская область, Россия): широта 59.55 долгота 150.70 высота над уровнем моря 116 м.

В архиве по умолчанию представлена погода в Магадане за последнюю неделю. Архивные данные за месяц целиком и за предыдущие месяцы, начиная с января 2011 года, Вы можете получить, выбрав интересующий диапазон дат из раскрывающегося списка и нажав кнопку "Ввод!".


*Определитесь, кто Вы:
робот инопланетянин человек

Внимание! Время в таблицах - всемирное. Для получения местного времени необходимо прибавить поправку, которая равна 11 ч.

Смотрите также архив погоды в соседних городах и на ближайших метеорологических станциях:

Погода в Нагаева (Магаданская область, Россия) (4 км)
Погода в Оле (Магаданская область, Россия) (28 км)
Погода в Армани (Магаданская область, Россия) (36 км)
Погода в Палатке (Магаданская область, Россия) (62 км)
Погода на Мысе Алевина (Магаданская область, Россия) (87 км)
Погода на Острове Спафарьева (Магаданская область, Россия) (106 км)
Погода в Мадауне (Магаданская область, Россия) (117 км)
Погода в Талоне (Магаданская область, Россия) (120 км)
Погода на Мысе Братьев (Магаданская область, Россия) (156 км)
Погода в Усть-Омчуге (Магаданская область, Россия) (185 км)

Пояснения к столбцам:

Ветер - указаны скорость ветра в м/с - средняя за 10 мин, порывы в срок и между сроками (в фигурных скобках) и направление, откуда дует ветер: С - северный, СВ - северо-восточный, В - восточный, ЮВ - юго-восточный, Ю - южный, ЮЗ - юго-западный, З - западный, СЗ - северо-западный.
Видимость - горизонтальная дальность видимости в метрах или километрах. При видимости от 1 до 10 км при отсутствии осадков обычно наблюдается дымка, при ухудшении видимости до 1 км и менее - туман. В сухую погоду видимость может ухудшаться дымом, пылью или мглою.
Явления - указаны атмосферные явления, наблюдавшиеся в срок или в последний час перед сроком; фигурными скобками обозначены явления, наблюдавшиеся между сроками (за 1-3 часа до срока); квадратными скобками обозначены град или гололедные отложения с указанием их диаметра в мм.
Облачность - указаны через наклонную черту общая и нижняя облачность в баллах и высота нижней границы облаков в метрах; квадратными скобками обозначены формы облаков: Ci - перистые, Cs - перисто-слоистые, Cc - перисто-кучевые, Ac - высококучевые, As - высокослоистые, Sc - слоисто-кучевые, Ns - слоисто-дождевые, Cu - кучевые, Cb - кучево-дождевые. Подробнее классификацию облаков см. в Атласе облаков (PDF).
T - Температура воздуха - температура, измеренная на высоте 2 м над землей.
Td - Температура точки росы - температура, при понижении до которой содержащийся в воздухе водяной пар достигнет насыщения.
f - Относительная влажность воздуха - влажноcть воздуха, измеренная на высоте 2 м над землей.
Te - Эффективная температура - температура, которую ощущает одетый по сезону человек в тени. Характеристика душности погоды. При расчете учитывается влияние влажности воздуха и скорости ветра на теплоощущения человека.
Tes - Эффективная температура на солнце - температура, которую ощущает человек, с поправкой на солнечный нагрев. Характеристика знойности погоды. Зависит от высоты солнца над горизонтом, облачности и скорости ветра. Ночью, в пасмурную погоду, а также при ветре 12 м/с и более поправка равна нулю.
P - Атмосферное давление - приведенное к уровню моря атмосферное давление.
Po - Атмосферное давление - измеренное на уровне метеостанции атмосферное давление.
Tmin - Минимальная температура - минимум температуры воздуха на высоте 2 м над землей.
Tmax - Максимальная температура - максимум температуры воздуха на высоте 2 м над землей.
R - Количество осадков - Количество выпавших осадков за период времени, мм. При наведении курсора мыши на число - период времени, за который выпало указанное количество осадков.
R24 - Количество осадков - Количество выпавших осадков за 24 часа, мм.
S - Снежный покров - Высота снежного покрова, см. При наведении курсора мыши на число - состояние снежного покрова и степень покрытия местности в баллах.